Flag for U.S.A. Weather past 2 weeks in Winston-Salem, North Carolina, U.S.A.

Now
86 °F

Sunny.


Feels Like: 87 °F
Forecast: 67 / 86 °F
Wind: 3 mph from North

Location: Smith Reynolds Airport

Current Time: May 28, 2015 at 4:56:28 PM

Latest Report: May 28, 2015 at 3:54 PM


Visibility: 10 mi

Pressure: 30.15 "Hg

Humidity: 45%

Dew point: 62 °F

Location of Winston-SalemLocation

Historic Weather in Winston-Salem — Graph

°F

Winston-Salem temperature yesterday

Maximum temperature yesterday: 82 °F (at 5:54 PM)
Minimum temperature yesterday: 66 °F (at 4:54 AM)
Average temperature yesterday: 74 °F

Past Weeks' High & Low Weather Summary

 TemperatureHumidityPressure
High88 °F (May 20, 5:54 PM)96% (May 21, 5:54 AM)30.44 "Hg (May 21, 5:54 AM)
Low50 °F (May 22, 5:54 AM)23% (May 13, 5:54 PM)29.83 "Hg (May 21, 5:54 PM)
Average71 °F61%30.18 "Hg
* Reported May 13 3:54 PM — May 28 3:54 PM, Winston-Salem, Weather by CustomWeather, © 2015

Note: Actual official high and low records may vary slightly from our data, if they occured in-between our weather recording intervals... More about our weather records

Advertising

Winston-Salem weather history for previous 24 hours

 ConditionsComfort  
Time TempWeatherWind HumidityBarometerVisibility
3:54 PM
Thu, May 28
86 °FSunny.3 mph45%30.15 "Hg10 mi
2:54 PM85 °FSunny.9 mph48%30.17 "Hg10 mi
1:54 PM84 °FPassing clouds.6 mph51%30.19 "Hg10 mi
12:54 PM82 °FBroken clouds.5 mph51%30.20 "Hg10 mi
11:54 AM81 °FPartly sunny.No wind54%30.20 "Hg10 mi
10:54 AM80 °FSunny.5 mph58%30.20 "Hg10 mi
9:54 AM77 °FSunny.No wind66%30.21 "Hg10 mi
8:54 AM72 °FSunny.3 mph81%30.22 "Hg10 mi
7:54 AM70 °FFog.No wind90%30.21 "Hg5 mi
7:02 AM68 °FFog.6 mph96%30.24 "Hg1 mi
5:54 AM69 °FFog.5 mph93%30.18 "Hg6 mi
4:54 AM69 °FLow clouds.3 mph90%30.17 "Hg10 mi
3:54 AM69 °FClear.3 mph90%30.17 "Hg10 mi
2:54 AM70 °FClear.5 mph84%30.18 "Hg10 mi
1:54 AM71 °FClear.5 mph81%30.19 "Hg10 mi
12:54 AM72 °FClear.3 mph81%30.20 "Hg10 mi
11:54 PM
Wed, May 27
74 °FClear.5 mph76%30.21 "Hg10 mi
10:54 PM76 °FClear.3 mph72%30.20 "Hg10 mi
9:54 PM77 °FPassing clouds.No wind60%30.19 "Hg10 mi
8:54 PM78 °FPassing clouds.3 mph58%30.17 "Hg10 mi
7:54 PM80 °FSunny.3 mph52%30.16 "Hg10 mi
6:54 PM82 °FPassing clouds.6 mph51%30.15 "Hg10 mi
5:54 PM82 °FPassing clouds.6 mph51%30.16 "Hg10 mi
4:54 PM81 °FPartly sunny.7 mph53%30.17 "Hg10 mi
Weather by CustomWeather, © 2015

See weather overviewHow to use our weather pages